Retour au catalogue

SL-14 DEB

ActifPO
NORAD 39971·DEBRIS·🇷🇺 Russia

Lancé Aug 18, 1987 depuis Plesetsk Cosmodrome

Loading…

Prochains Passages (prochaines 24 heures)

TLE

FraisSource: Space-Track

Époque: Sep 14, 2026, 12:56 UTC

1 39971U 87068CX  26257.53907615  .00000713  00000-0  54934-3 0  9995
2 39971  82.4577 181.9804 0058016 170.2543 313.0825 13.90958016622348

Suivez SL-14 DEB en temps réel avec AllMySat

Download on the App Store